Weather History for OTBD - September, 2010

Change the Weather History Date:

Monday, September 13, 2010

  Actual Average Record
Temperature  
Mean Temperature 94 °F -  
Max Temperature 102 °F 98 °F 105 °F (2011)
Min Temperature 87 °F 77 °F 77 °F (1997)
Cooling Degree Days 30    
Growing Degree Days 44 (Base 50)    
Moisture  
Dew Point 79 °F    
Average Humidity 62    
Maximum Humidity 84    
Minimum Humidity 34    
Precipitation  
Precipitation 0.00 in 0.00 in - ()
Sea Level Pressure  
Sea Level Pressure 29.66 in    
Wind  
Wind Speed 5 mph ()    
Max Wind Speed 9 mph    
Max Gust Speed -    
Visibility 5.7 miles    
Events      
Averages and records for this station are not official NWS values.
T = Trace of Precipitation, MM = Missing Value Source: Averaged Metar Reports

Daily Weather History Graph

Daily Weather History Graph

Search for Another Location

Airport or City:

Trip Planner

Search our weather history database for the weather conditions in past years. The results will help you decide how hot, cold, wet, or windy it might be!

Date:

Astronomy

Sep. 13, 2010 Rise Set
Actual Time 5:18 AM AST 5:40 PM AST
Civil Twilight 4:55 AM AST 6:03 PM AST
Nautical Twilight 4:28 AM AST 6:30 PM AST
Astronomical Twilight 4:01 AM AST 6:57 PM AST
Moon 10:26 AM AST (9/13) 9:15 PM AST (9/13)
Length of Visible Light 13h 07m
Length of Day
12h 21m
Waxing Crescent, 31% of the Moon is Illuminated
Sep 13
Waxing Crescent
Sep 15
First Quarter
Sep 23
Full
Oct 1
Last Quarter
Oct 7
New

Hourly Weather History & Observations

Time (AST) Temp. Heat Index Dew Point Humidity Pressure Visibility Wind Dir Wind Speed Gust Speed Precip Events Conditions
12:00 AM 89.6 °F 115.0 °F 84.2 °F 84% 29.65 in - NNW 6.9 mph - N/A   Clear
1:00 AM 89.6 °F 115.0 °F 84.2 °F 84% 29.65 in - North 5.8 mph - N/A   Clear
2:00 AM 89.6 °F 111.1 °F 82.4 °F 79% 29.65 in - NNE 8.1 mph - N/A   Clear
3:00 AM 90 °F - 81 °F 69% 29.66 in 6 mi NNE 4.6 mph - -  
4:00 AM 87.8 °F 104.9 °F 80.6 °F 79% 29.65 in - North 3.5 mph - N/A   Clear
5:00 AM 89.6 °F 111.1 °F 82.4 °F 79% 29.68 in 5.0 mi NNE 3.5 mph - N/A   Unknown
6:00 AM 89.6 °F 111.1 °F 82.4 °F 79% 29.68 in 4.3 mi North 3.5 mph - N/A   Unknown
7:00 AM 91.4 °F 117.8 °F 84.2 °F 79% 29.71 in 5.0 mi North 2.3 mph - N/A   Unknown
8:00 AM 95.0 °F 119.6 °F 82.4 °F 67% 29.71 in 5.0 mi Variable 2.3 mph - N/A   Unknown
9:00 AM 96 °F - 80 °F 52% 29.73 in 6 mi NE 3.5 mph - -   Clear
9:00 AM 96.8 °F 118.6 °F 80.6 °F 60% 29.71 in - North - - N/A   Clear
10:00 AM 98.6 °F 114.4 °F 77.0 °F 50% 29.71 in - NNE 4.6 mph - N/A   Clear
11:00 AM 100.4 °F 113.6 °F 75.2 °F 44% - - ENE 8.1 mph - N/A   Clear
12:00 PM 102.2 °F 111.7 °F 71.6 °F 37% 29.68 in - NNE 6.9 mph - N/A   Clear
1:00 PM 100.4 °F 116.5 °F 77.0 °F 47% 29.65 in - ENE 8.1 mph - N/A   Clear
2:00 PM 102.2 °F 114.4 °F 73.4 °F 40% 29.65 in - ENE 9.2 mph - N/A   Clear
3:00 PM 100 °F - 74 °F 34% 29.65 in 7 mi ENE 6.9 mph - -   Clear
3:00 PM 100.4 °F 111.9 °F 73.4 °F 42% 29.62 in - ENE 6.9 mph - N/A   Clear
4:00 PM 100.4 °F 111.9 °F 73.4 °F 42% 29.62 in - ENE 6.9 mph - N/A   Clear
5:00 PM 96.8 °F 107.3 °F 73.4 °F 47% 29.62 in - NNE 8.1 mph - N/A   Clear
6:00 PM 95.0 °F 112.2 °F 78.8 °F 59% 29.62 in - North 9.2 mph - N/A   Clear
9:00 PM 93 °F - 83 °F 65% 29.68 in 7 mi NE 8.1 mph - -  
9:00 PM 93.2 °F 117.1 °F 82.4 °F 71% 29.68 in - NE 8.1 mph - N/A   Clear
10:00 PM 91.4 °F 111.0 °F 80.6 °F 71% 29.65 in - North 4.6 mph - N/A   Clear
11:00 PM 89.6 °F 111.1 °F 82.4 °F 79% 29.65 in - North 4.6 mph - N/A   Clear